IBB520 GCLP-GCRR

Flight info

Callsign IBB520
Flight time N/A
Altitude 9000
Route RASEP
Aircraft AT75/M-SDE2E3FGHIRWXY/LB1

Departure

Time 2026-05-06 16:26
Airport Gran Canaria Airport (GCLP)

Arrival

Time N/A
Airport César Manrique-Lanzarote Airport (GCRR)
Time Latitude Longitude Altitude Speed Heading
2026-05-06 16:18 27.92655 -15.39370 85 ft 0 kts 84°
2026-05-06 16:20 27.92655 -15.39369 85 ft 0 kts 85°
2026-05-06 16:21 27.92655 -15.39368 85 ft 1 kts 86°
2026-05-06 16:21 27.92656 -15.39346 85 ft 4 kts 79°
2026-05-06 16:21 27.92659 -15.39310 85 ft 4 kts 124°
2026-05-06 16:21 27.92628 -15.39298 85 ft 6 kts 188°
2026-05-06 16:22 27.92584 -15.39317 85 ft 8 kts 204°
2026-05-06 16:22 27.92529 -15.39345 85 ft 9 kts 206°
2026-05-06 16:22 27.92464 -15.39376 85 ft 11 kts 194°
2026-05-06 16:22 27.92409 -15.39347 85 ft 9 kts 125°
2026-05-06 16:23 27.92381 -15.39280 85 ft 9 kts 112°
2026-05-06 16:23 27.92341 -15.39234 85 ft 7 kts 187°
2026-05-06 16:23 27.92287 -15.39259 85 ft 9 kts 205°
2026-05-06 16:23 27.92227 -15.39287 85 ft 10 kts 201°
2026-05-06 16:24 27.92158 -15.39317 85 ft 11 kts 200°
2026-05-06 16:24 27.92081 -15.39321 85 ft 12 kts 177°
2026-05-06 16:24 27.92001 -15.39306 85 ft 12 kts 168°
2026-05-06 16:24 27.91921 -15.39287 85 ft 11 kts 143°
2026-05-06 16:25 27.91929 -15.39224 85 ft 10 kts 39°
2026-05-06 16:25 27.92101 -15.39139 85 ft 58 kts 22°
2026-05-06 16:25 27.92708 -15.38870 87 ft 126 kts 22°
2026-05-06 16:25 27.93520 -15.38515 613 ft 130 kts 24°
2026-05-06 16:26 27.94501 -15.38080 867 ft 165 kts 24°
2026-05-06 16:26 27.95577 -15.37615 1406 ft 167 kts 24°
2026-05-06 16:26 27.96684 -15.37133 1786 ft 173 kts 24°
2026-05-06 16:26 27.96816 -15.37075 1832 ft 173 kts 25°
2026-05-06 16:27 27.97943 -15.36578 2134 ft 183 kts 24°
2026-05-06 16:27 27.99120 -15.36061 2638 ft 180 kts 24°
2026-05-06 16:27 28.00297 -15.35547 3096 ft 182 kts 24°
2026-05-06 16:27 28.01485 -15.35042 3585 ft 180 kts 23°
2026-05-06 16:28 28.02616 -15.34528 4199 ft 172 kts 24°
2026-05-06 16:28 28.03717 -15.34031 4717 ft 170 kts 24°
2026-05-06 16:28 28.04824 -15.33518 5177 ft 172 kts 25°
2026-05-06 16:28 28.05931 -15.33017 5627 ft 174 kts 25°
2026-05-06 16:29 28.07062 -15.32515 6065 ft 176 kts 24°
2026-05-06 16:29 28.08224 -15.32004 6514 ft 178 kts 24°
2026-05-06 16:29 28.09375 -15.31502 6935 ft 180 kts 24°
2026-05-06 16:29 28.10547 -15.30998 7348 ft 181 kts 23°
2026-05-06 16:30 28.11732 -15.30515 7774 ft 181 kts 22°
2026-05-06 16:30 28.12520 -15.30196 8048 ft 182 kts 22°
2026-05-06 16:30 28.14151 -15.29501 8466 ft 191 kts 28°
2026-05-06 16:30 28.15131 -15.28519 8856 ft 190 kts 50°
2026-05-06 16:31 28.15973 -15.27280 8960 ft 205 kts 56°
2026-05-06 16:31 28.16830 -15.25905 8993 ft 220 kts 57°
2026-05-06 16:31 28.17722 -15.24441 9000 ft 231 kts 57°
2026-05-06 16:31 28.18648 -15.22912 9001 ft 239 kts 57°
2026-05-06 16:32 28.19621 -15.21357 8996 ft 244 kts 56°
2026-05-06 16:32 28.20230 -15.20418 8992 ft 246 kts 55°
2026-05-06 16:32 28.20756 -15.19620 8994 ft 247 kts 54°
2026-05-06 16:32 28.21786 -15.18069 8993 ft 249 kts 54°
2026-05-06 16:33 28.22831 -15.16490 8991 ft 250 kts 55°
2026-05-06 16:33 28.23874 -15.14900 8991 ft 251 kts 55°
2026-05-06 16:33 28.24911 -15.13314 8992 ft 252 kts 55°
2026-05-06 16:34 28.25614 -15.12240 8993 ft 254 kts 55°